Time,TemperatureF,DewpointF,PressureIn,WindDirection,WindDirectionDegrees,WindSpeedMPH,WindSpeedGustMPH,Humidity,HourlyPrecipIn,Conditions,Clouds,dailyrainin,SoftwareType,DateUTC
2013-05-28 00:03:00,72.5,67.4,29.53,SSE,164,13.0,14.0,84,0.00,,,0.00,Wunderground v.1.15,2013-05-28 05:03:00,
2013-05-28 00:09:00,72.4,67.6,29.53,South,171,13.0,16.0,85,0.00,,,0.00,Wunderground v.1.15,2013-05-28 05:09:00,
2013-05-28 00:14:00,72.4,67.6,29.53,South,169,12.0,16.0,85,0.00,,,0.00,Wunderground v.1.15,2013-05-28 05:14:00,
2013-05-28 00:19:00,72.2,67.4,29.52,SE,145,12.0,16.0,85,0.00,,,0.00,Wunderground v.1.15,2013-05-28 05:19:00,
2013-05-28 00:25:00,72.1,67.7,29.52,South,171,12.0,15.0,86,0.00,,,0.00,Wunderground v.1.15,2013-05-28 05:25:00,
2013-05-28 00:31:00,72.2,67.8,29.52,SSE,150,12.0,16.0,86,0.00,,,0.00,Wunderground v.1.15,2013-05-28 05:31:00,
2013-05-28 00:37:00,72.2,67.8,29.52,SSE,168,13.0,19.0,86,0.00,,,0.00,Wunderground v.1.15,2013-05-28 05:37:00,
2013-05-28 00:43:00,72.2,67.4,29.52,SSE,167,14.0,18.0,85,0.00,,,0.00,Wunderground v.1.15,2013-05-28 05:43:00,
2013-05-28 00:48:00,72.4,67.6,29.52,SSE,155,13.0,18.0,85,0.00,,,0.00,Wunderground v.1.15,2013-05-28 05:48:00,
2013-05-28 00:53:00,72.6,67.8,29.52,South,174,14.0,16.0,85,0.00,,,0.00,Wunderground v.1.15,2013-05-28 05:53:00,
2013-05-28 00:59:00,72.8,67.7,29.52,South,184,14.0,18.0,84,0.00,,,0.00,Wunderground v.1.15,2013-05-28 05:59:00,
2013-05-28 01:04:00,72.8,67.7,29.52,South,172,14.0,18.0,84,0.00,,,0.00,Wunderground v.1.15,2013-05-28 06:04:00,
2013-05-28 01:09:00,72.8,67.7,29.52,SSE,166,14.0,18.0,84,0.00,,,0.00,Wunderground v.1.15,2013-05-28 06:09:00,
2013-05-28 01:15:00,72.8,67.7,29.52,SSE,163,14.0,17.0,84,0.00,,,0.00,Wunderground v.1.15,2013-05-28 06:15:00,
2013-05-28 01:20:00,72.8,67.7,29.52,SSE,168,14.0,20.0,84,0.00,,,0.00,Wunderground v.1.15,2013-05-28 06:20:00,
2013-05-28 01:26:00,72.6,67.8,29.52,South,171,15.0,21.0,85,0.00,,,0.00,Wunderground v.1.15,2013-05-28 06:26:00,
2013-05-28 01:31:00,72.5,67.7,29.52,South,185,14.0,18.0,85,0.00,,,0.00,Wunderground v.1.15,2013-05-28 06:31:00,
2013-05-28 01:36:00,72.6,67.8,29.52,SSE,163,14.0,18.0,85,0.00,,,0.00,Wunderground v.1.15,2013-05-28 06:36:00,
2013-05-28 01:42:00,72.4,67.6,29.52,South,178,15.0,18.0,85,0.00,,,0.00,Wunderground v.1.15,2013-05-28 06:42:00,
2013-05-28 01:47:00,72.4,68.0,29.52,South,171,14.0,19.0,86,0.00,,,0.00,Wunderground v.1.15,2013-05-28 06:47:00,
2013-05-28 01:53:00,72.3,67.9,29.52,South,175,14.0,18.0,86,0.00,,,0.00,Wunderground v.1.15,2013-05-28 06:53:00,
2013-05-28 01:58:00,72.3,67.9,29.52,South,175,14.0,18.0,86,0.00,,,0.00,Wunderground v.1.15,2013-05-28 06:58:00,
2013-05-28 02:04:00,72.1,67.7,29.52,South,171,12.0,14.0,86,0.00,,,0.00,Wunderground v.1.15,2013-05-28 07:04:00,
2013-05-28 02:11:00,72.0,67.6,29.52,SSE,166,13.0,17.0,86,0.00,,,0.00,Wunderground v.1.15,2013-05-28 07:11:00,
2013-05-28 02:17:00,72.0,67.6,29.52,South,184,13.0,19.0,86,0.00,,,0.00,Wunderground v.1.15,2013-05-28 07:17:00,
2013-05-28 02:23:00,72.1,67.7,29.52,South,187,14.0,20.0,86,0.00,,,0.00,Wunderground v.1.15,2013-05-28 07:23:00,
2013-05-28 02:28:00,72.2,67.8,29.52,SSE,158,14.0,20.0,86,0.00,,,0.00,Wunderground v.1.15,2013-05-28 07:28:00,
2013-05-28 02:34:00,72.2,67.8,29.51,South,190,14.0,19.0,86,0.00,,,0.00,Wunderground v.1.15,2013-05-28 07:34:00,
2013-05-28 02:39:00,72.2,67.8,29.51,South,174,14.0,19.0,86,0.00,,,0.00,Wunderground v.1.15,2013-05-28 07:39:00,
2013-05-28 02:44:00,72.1,67.7,29.51,South,189,15.0,21.0,86,0.00,,,0.00,Wunderground v.1.15,2013-05-28 07:44:00,
2013-05-28 02:50:00,72.0,67.9,29.50,South,180,15.0,15.0,87,0.00,,,0.00,Wunderground v.1.15,2013-05-28 07:50:00,
2013-05-28 02:56:00,72.0,67.6,29.50,South,171,15.0,20.0,86,0.00,,,0.00,Wunderground v.1.15,2013-05-28 07:56:00,
2013-05-28 03:02:00,72.0,67.9,29.50,SSE,167,16.0,24.0,87,0.00,,,0.00,Wunderground v.1.15,2013-05-28 08:02:00,
2013-05-28 03:08:00,71.8,67.7,29.50,South,183,15.0,24.0,87,0.00,,,0.00,Wunderground v.1.15,2013-05-28 08:08:00,
2013-05-28 03:13:00,71.7,67.6,29.50,South,181,15.0,18.0,87,0.00,,,0.00,Wunderground v.1.15,2013-05-28 08:13:00,
2013-05-28 03:19:00,71.6,67.5,29.50,SSE,165,15.0,18.0,87,0.00,,,0.00,Wunderground v.1.15,2013-05-28 08:19:00,
2013-05-28 03:25:00,71.6,67.5,29.49,South,170,16.0,22.0,87,0.00,,,0.00,Wunderground v.1.15,2013-05-28 08:25:00,
2013-05-28 03:30:00,71.4,67.7,29.49,South,174,15.0,18.0,88,0.00,,,0.00,Wunderground v.1.15,2013-05-28 08:30:00,
2013-05-28 03:36:00,71.4,67.7,29.49,South,177,14.0,20.0,88,0.00,,,0.00,Wunderground v.1.15,2013-05-28 08:36:00,
2013-05-28 03:42:00,71.5,67.8,29.49,South,175,14.0,20.0,88,0.00,,,0.00,Wunderground v.1.15,2013-05-28 08:42:00,
2013-05-28 03:47:00,71.5,67.8,29.49,South,173,15.0,22.0,88,0.00,,,0.00,Wunderground v.1.15,2013-05-28 08:47:00,
2013-05-28 03:53:00,71.4,67.7,29.49,SSE,157,15.0,19.0,88,0.00,,,0.00,Wunderground v.1.15,2013-05-28 08:53:00,
2013-05-28 03:58:00,71.4,67.7,29.49,South,173,15.0,19.0,88,0.00,,,0.00,Wunderground v.1.15,2013-05-28 08:58:00,
2013-05-28 04:03:00,71.3,67.6,29.49,SSE,159,15.0,18.0,88,0.00,,,0.00,Wunderground v.1.15,2013-05-28 09:03:00,
2013-05-28 04:09:00,71.2,67.5,29.49,SSW,193,14.0,18.0,88,0.00,,,0.00,Wunderground v.1.15,2013-05-28 09:09:00,
2013-05-28 04:14:00,71.2,67.5,29.49,South,174,14.0,18.0,88,0.00,,,0.00,Wunderground v.1.15,2013-05-28 09:14:00,
2013-05-28 04:20:00,71.1,67.7,29.50,South,182,14.0,14.0,89,0.00,,,0.00,Wunderground v.1.15,2013-05-28 09:20:00,
2013-05-28 04:25:00,71.0,67.6,29.50,SSW,194,13.0,16.0,89,0.00,,,0.00,Wunderground v.1.15,2013-05-28 09:25:00,
2013-05-28 04:30:00,71.1,67.7,29.50,South,170,14.0,14.0,89,0.00,,,0.00,Wunderground v.1.15,2013-05-28 09:30:00,
2013-05-28 04:36:00,71.2,67.5,29.50,South,179,14.0,18.0,88,0.00,,,0.00,Wunderground v.1.15,2013-05-28 09:36:00,
2013-05-28 04:41:00,71.3,67.6,29.50,South,178,13.0,18.0,88,0.00,,,0.00,Wunderground v.1.15,2013-05-28 09:41:00,
2013-05-28 04:47:00,71.7,67.6,29.50,South,179,15.0,21.0,87,0.00,,,0.00,Wunderground v.1.15,2013-05-28 09:47:00,
2013-05-28 04:52:00,71.7,67.6,29.50,South,175,15.0,20.0,87,0.00,,,0.00,Wunderground v.1.15,2013-05-28 09:52:00,
2013-05-28 04:58:00,71.8,67.7,29.50,South,178,14.0,20.0,87,0.00,,,0.00,Wunderground v.1.15,2013-05-28 09:58:00,
2013-05-28 05:03:00,71.9,67.8,29.50,South,176,13.0,16.0,87,0.00,,,0.00,Wunderground v.1.15,2013-05-28 10:03:00,
2013-05-28 05:08:00,71.8,67.7,29.50,South,175,13.0,17.0,87,0.00,,,0.00,Wunderground v.1.15,2013-05-28 10:08:00,
2013-05-28 05:13:00,71.7,67.6,29.50,South,178,14.0,17.0,87,0.00,,,0.00,Wunderground v.1.15,2013-05-28 10:13:00,
2013-05-28 05:19:00,71.6,67.5,29.50,South,169,14.0,17.0,87,0.00,,,0.00,Wunderground v.1.15,2013-05-28 10:19:00,
2013-05-28 05:24:00,71.5,67.8,29.50,SSE,158,13.0,17.0,88,0.00,,,0.00,Wunderground v.1.15,2013-05-28 10:24:00,
2013-05-28 05:30:00,71.4,67.7,29.50,South,174,14.0,18.0,88,0.00,,,0.00,Wunderground v.1.15,2013-05-28 10:30:00,
2013-05-28 05:35:00,71.4,67.7,29.50,South,178,14.0,17.0,88,0.00,,,0.00,Wunderground v.1.15,2013-05-28 10:35:00,
2013-05-28 05:41:00,71.4,67.7,29.50,SSE,155,14.0,14.0,88,0.00,,,0.00,Wunderground v.1.15,2013-05-28 10:41:00,
2013-05-28 05:46:00,71.4,67.7,29.50,South,169,13.0,20.0,88,0.00,,,0.00,Wunderground v.1.15,2013-05-28 10:46:00,
2013-05-28 05:52:00,71.1,67.7,29.50,SSE,164,13.0,14.0,89,0.00,,,0.00,Wunderground v.1.15,2013-05-28 10:52:00,
2013-05-28 05:57:00,71.1,67.7,29.50,South,182,14.0,19.0,89,0.00,,,0.00,Wunderground v.1.15,2013-05-28 10:57:00,
2013-05-28 06:02:00,71.0,67.6,29.51,South,173,13.0,14.0,89,0.00,,,0.00,Wunderground v.1.15,2013-05-28 11:02:00,
2013-05-28 06:08:00,70.9,67.5,29.51,South,169,13.0,16.0,89,0.00,,,0.00,Wunderground v.1.15,2013-05-28 11:08:00,
2013-05-28 06:14:00,70.7,67.6,29.51,South,182,12.0,16.0,90,0.00,,,0.00,Wunderground v.1.15,2013-05-28 11:14:00,
2013-05-28 06:20:00,70.9,67.8,29.51,South,176,13.0,15.0,90,0.00,,,0.00,Wunderground v.1.15,2013-05-28 11:20:00,
2013-05-28 06:26:00,70.8,67.7,29.51,SSE,165,13.0,17.0,90,0.00,,,0.00,Wunderground v.1.15,2013-05-28 11:26:00,
2013-05-28 06:32:00,71.0,67.9,29.51,South,191,12.0,16.0,90,0.00,,,0.00,Wunderground v.1.15,2013-05-28 11:32:00,
2013-05-28 06:37:00,71.1,68.0,29.51,SSW,192,13.0,19.0,90,0.00,,,0.00,Wunderground v.1.15,2013-05-28 11:37:00,
2013-05-28 06:43:00,71.2,67.8,29.52,South,184,14.0,20.0,89,0.00,,,0.00,Wunderground v.1.15,2013-05-28 11:43:00,
2013-05-28 06:48:00,71.2,67.8,29.52,South,180,14.0,20.0,89,0.00,,,0.00,Wunderground v.1.15,2013-05-28 11:48:00,
2013-05-28 06:54:00,71.2,68.1,29.52,South,170,13.0,14.0,90,0.00,,,0.00,Wunderground v.1.15,2013-05-28 11:54:00,
2013-05-28 06:59:00,71.6,68.2,29.52,South,185,14.0,19.0,89,0.00,,,0.00,Wunderground v.1.15,2013-05-28 11:59:00,
2013-05-28 07:04:00,71.8,68.4,29.52,South,169,14.0,19.0,89,0.00,,,0.00,Wunderground v.1.15,2013-05-28 12:04:00,
2013-05-28 07:10:00,72.0,68.6,29.52,South,176,14.0,18.0,89,0.00,,,0.00,Wunderground v.1.15,2013-05-28 12:10:00,
2013-05-28 07:15:00,72.0,68.6,29.51,South,182,15.0,18.0,89,0.00,,,0.00,Wunderground v.1.15,2013-05-28 12:15:00,
2013-05-28 07:21:00,72.1,68.7,29.51,South,188,16.0,20.0,89,0.00,,,0.00,Wunderground v.1.15,2013-05-28 12:21:00,
2013-05-28 07:27:00,72.3,68.9,29.51,SSE,164,17.0,24.0,89,0.00,,,0.00,Wunderground v.1.15,2013-05-28 12:27:00,
2013-05-28 07:32:00,72.4,68.6,29.51,South,180,17.0,20.0,88,0.00,,,0.00,Wunderground v.1.15,2013-05-28 12:32:00,
2013-05-28 07:37:00,72.6,68.8,29.51,South,186,18.0,22.0,88,0.00,,,0.00,Wunderground v.1.15,2013-05-28 12:37:00,
2013-05-28 07:43:00,72.5,68.7,29.51,South,171,19.0,21.0,88,0.00,,,0.00,Wunderground v.1.15,2013-05-28 12:43:00,
2013-05-28 07:48:00,72.5,69.1,29.51,South,179,18.0,22.0,89,0.00,,,0.00,Wunderground v.1.15,2013-05-28 12:48:00,
2013-05-28 07:54:00,72.6,69.2,29.51,South,189,18.0,26.0,89,0.00,,,0.00,Wunderground v.1.15,2013-05-28 12:54:00,
2013-05-28 08:00:00,72.6,69.2,29.51,SSW,192,18.0,18.0,89,0.00,,,0.00,Wunderground v.1.15,2013-05-28 13:00:00,
2013-05-28 08:05:00,72.8,69.4,29.51,South,174,18.0,23.0,89,0.00,,,0.00,Wunderground v.1.15,2013-05-28 13:05:00,
2013-05-28 08:11:00,72.8,69.0,29.51,South,180,18.0,22.0,88,0.00,,,0.00,Wunderground v.1.15,2013-05-28 13:11:00,
2013-05-28 08:17:00,72.9,69.1,29.51,South,187,18.0,22.0,88,0.00,,,0.00,Wunderground v.1.15,2013-05-28 13:17:00,
2013-05-28 08:23:00,73.0,69.2,29.51,South,184,18.0,22.0,88,0.00,,,0.00,Wunderground v.1.15,2013-05-28 13:23:00,
2013-05-28 08:28:00,73.1,69.3,29.51,South,175,17.0,22.0,88,0.00,,,0.00,Wunderground v.1.15,2013-05-28 13:28:00,
2013-05-28 08:34:00,73.2,69.4,29.51,South,187,17.0,21.0,88,0.00,,,0.00,Wunderground v.1.15,2013-05-28 13:34:00,
2013-05-28 08:39:00,73.4,69.6,29.51,South,190,17.0,21.0,88,0.00,,,0.00,Wunderground v.1.15,2013-05-28 13:39:00,
2013-05-28 08:44:00,73.6,69.8,29.51,SSE,168,16.0,21.0,88,0.00,,,0.00,Wunderground v.1.15,2013-05-28 13:44:00,
2013-05-28 08:50:00,73.7,69.9,29.52,SSE,168,15.0,15.0,88,0.00,,,0.00,Wunderground v.1.15,2013-05-28 13:50:00,
2013-05-28 08:56:00,73.9,69.8,29.51,South,177,16.0,22.0,87,0.00,,,0.00,Wunderground v.1.15,2013-05-28 13:56:00,
2013-05-28 09:02:00,74.1,70.0,29.52,SSW,196,16.0,18.0,87,0.00,,,0.00,Wunderground v.1.15,2013-05-28 14:02:00,
2013-05-28 09:08:00,74.2,70.1,29.52,SSW,196,15.0,18.0,87,0.00,,,0.00,Wunderground v.1.15,2013-05-28 14:08:00,
2013-05-28 09:13:00,74.5,70.4,29.53,South,186,13.0,19.0,87,0.00,,,0.00,Wunderground v.1.15,2013-05-28 14:13:00,
2013-05-28 09:19:00,74.7,70.6,29.53,SSW,198,12.0,19.0,87,0.00,,,0.00,Wunderground v.1.15,2013-05-28 14:19:00,
2013-05-28 09:24:00,74.8,70.3,29.53,South,174,12.0,18.0,86,0.00,,,0.00,Wunderground v.1.15,2013-05-28 14:24:00,
2013-05-28 09:30:00,75.1,70.6,29.53,South,173,13.0,16.0,86,0.00,,,0.00,Wunderground v.1.15,2013-05-28 14:30:00,
2013-05-28 09:36:00,75.2,70.4,29.53,South,184,14.0,22.0,85,0.00,,,0.00,Wunderground v.1.15,2013-05-28 14:36:00,
2013-05-28 09:42:00,75.3,70.8,29.54,South,186,13.0,16.0,86,0.00,,,0.00,Wunderground v.1.15,2013-05-28 14:42:00,
2013-05-28 09:47:00,75.3,70.5,29.54,South,186,12.0,17.0,85,0.00,,,0.00,Wunderground v.1.15,2013-05-28 14:47:00,
2013-05-28 09:53:00,75.6,70.8,29.53,South,188,14.0,19.0,85,0.00,,,0.00,Wunderground v.1.15,2013-05-28 14:53:00,
2013-05-28 09:58:00,75.7,70.9,29.53,South,173,16.0,19.0,85,0.00,,,0.00,Wunderground v.1.15,2013-05-28 14:58:00,
2013-05-28 10:04:00,75.9,70.7,29.53,SSE,167,16.0,20.0,84,0.00,,,0.00,Wunderground v.1.15,2013-05-28 15:04:00,
2013-05-28 10:10:00,76.1,70.9,29.53,South,189,14.0,14.0,84,0.00,,,0.00,Wunderground v.1.15,2013-05-28 15:10:00,
2013-05-28 10:16:00,76.2,71.0,29.54,SSE,166,13.0,19.0,84,0.00,,,0.00,Wunderground v.1.15,2013-05-28 15:16:00,
2013-05-28 10:22:00,76.5,71.7,29.53,SSE,165,12.0,16.0,85,0.00,,,0.00,Wunderground v.1.15,2013-05-28 15:22:00,
2013-05-28 10:27:00,76.7,71.5,29.53,South,178,12.0,17.0,84,0.00,,,0.00,Wunderground v.1.15,2013-05-28 15:27:00,
2013-05-28 10:33:00,76.9,71.3,29.53,SSW,212,14.0,15.0,83,0.00,,,0.00,Wunderground v.1.15,2013-05-28 15:33:00,
2013-05-28 10:39:00,77.1,71.5,29.53,South,182,13.0,16.0,83,0.00,,,0.00,Wunderground v.1.15,2013-05-28 15:39:00,
2013-05-28 10:44:00,77.5,71.9,29.54,SSE,168,13.0,16.0,83,0.00,,,0.00,Wunderground v.1.15,2013-05-28 15:44:00,
2013-05-28 10:49:00,77.7,71.8,29.54,South,191,13.0,18.0,82,0.00,,,0.00,Wunderground v.1.15,2013-05-28 15:49:00,
2013-05-28 10:55:00,77.7,71.4,29.54,South,181,15.0,23.0,81,0.00,,,0.00,Wunderground v.1.15,2013-05-28 15:55:00,
2013-05-28 11:01:00,77.7,71.8,29.54,South,184,13.0,17.0,82,0.00,,,0.00,Wunderground v.1.15,2013-05-28 16:01:00,
2013-05-28 11:07:00,77.7,71.8,29.54,South,169,11.0,18.0,82,0.00,,,0.00,Wunderground v.1.15,2013-05-28 16:07:00,
2013-05-28 11:12:00,77.7,71.4,29.54,SSE,158,12.0,20.0,81,0.00,,,0.00,Wunderground v.1.15,2013-05-28 16:12:00,
2013-05-28 11:17:00,77.8,71.9,29.54,South,177,13.0,20.0,82,0.00,,,0.00,Wunderground v.1.15,2013-05-28 16:17:00,
2013-05-28 11:23:00,78.0,71.7,29.54,South,173,13.0,18.0,81,0.00,,,0.00,Wunderground v.1.15,2013-05-28 16:23:00,
2013-05-28 11:28:00,78.3,72.0,29.54,South,188,13.0,18.0,81,0.00,,,0.00,Wunderground v.1.15,2013-05-28 16:28:00,
2013-05-28 11:34:00,78.3,71.6,29.54,South,179,13.0,17.0,80,0.00,,,0.00,Wunderground v.1.15,2013-05-28 16:34:00,
2013-05-28 11:40:00,78.2,71.9,29.54,South,175,14.0,20.0,81,0.00,,,0.00,Wunderground v.1.15,2013-05-28 16:40:00,
2013-05-28 11:45:00,78.5,71.8,29.54,South,173,15.0,20.0,80,0.00,,,0.00,Wunderground v.1.15,2013-05-28 16:45:00,
2013-05-28 11:51:00,78.7,72.0,29.54,South,181,16.0,19.0,80,0.00,,,0.00,Wunderground v.1.15,2013-05-28 16:51:00,
2013-05-28 11:56:00,78.9,72.2,29.54,South,182,15.0,19.0,80,0.00,,,0.00,Wunderground v.1.15,2013-05-28 16:56:00,
2013-05-28 12:02:00,79.4,72.7,29.54,South,169,13.0,18.0,80,0.00,,,0.00,Wunderground v.1.15,2013-05-28 17:02:00,
2013-05-28 12:08:00,79.8,72.7,29.54,South,173,15.0,23.0,79,0.00,,,0.00,Wunderground v.1.15,2013-05-28 17:08:00,
2013-05-28 12:13:00,79.8,72.3,29.53,South,169,17.0,23.0,78,0.00,,,0.00,Wunderground v.1.15,2013-05-28 17:13:00,
2013-05-28 12:19:00,80.1,72.6,29.53,South,178,17.0,23.0,78,0.00,,,0.00,Wunderground v.1.15,2013-05-28 17:19:00,
2013-05-28 12:24:00,80.3,72.8,29.53,South,186,16.0,19.0,78,0.00,,,0.00,Wunderground v.1.15,2013-05-28 17:24:00,
2013-05-28 12:30:00,80.8,73.3,29.53,South,177,15.0,17.0,78,0.00,,,0.00,Wunderground v.1.15,2013-05-28 17:30:00,
2013-05-28 12:35:00,81.2,73.7,29.52,South,180,15.0,19.0,78,0.00,,,0.00,Wunderground v.1.15,2013-05-28 17:35:00,
2013-05-28 12:41:00,81.2,73.3,29.52,South,186,17.0,24.0,77,0.00,,,0.00,Wunderground v.1.15,2013-05-28 17:41:00,
2013-05-28 12:47:00,81.2,72.9,29.52,South,171,19.0,24.0,76,0.00,,,0.00,Wunderground v.1.15,2013-05-28 17:47:00,
2013-05-28 12:53:00,81.3,73.0,29.52,South,175,19.0,24.0,76,0.00,,,0.00,Wunderground v.1.15,2013-05-28 17:53:00,
2013-05-28 12:58:00,81.2,72.9,29.52,South,180,20.0,24.0,76,0.00,,,0.00,Wunderground v.1.15,2013-05-28 17:58:00,
2013-05-28 13:03:00,81.8,73.5,29.52,South,184,19.0,24.0,76,0.00,,,0.00,Wunderground v.1.15,2013-05-28 18:03:00,
2013-05-28 13:09:00,81.8,73.1,29.52,South,172,18.0,24.0,75,0.00,,,0.00,Wunderground v.1.15,2013-05-28 18:09:00,
2013-05-28 13:14:00,81.6,72.9,29.52,SSE,159,19.0,24.0,75,0.00,,,0.00,Wunderground v.1.15,2013-05-28 18:14:00,
2013-05-28 13:20:00,80.7,72.4,29.52,South,190,21.0,27.0,76,0.00,,,0.00,Wunderground v.1.15,2013-05-28 18:20:00,
2013-05-28 13:25:00,81.2,72.9,29.52,South,182,21.0,27.0,76,0.00,,,0.00,Wunderground v.1.15,2013-05-28 18:25:00,
2013-05-28 13:31:00,81.4,73.5,29.52,South,179,20.0,23.0,77,0.00,,,0.00,Wunderground v.1.15,2013-05-28 18:31:00,
2013-05-28 13:36:00,81.8,73.5,29.52,South,175,20.0,23.0,76,0.00,,,0.00,Wunderground v.1.15,2013-05-28 18:36:00,
2013-05-28 13:42:00,82.3,74.0,29.52,South,175,21.0,31.0,76,0.00,,,0.00,Wunderground v.1.15,2013-05-28 18:42:00,
2013-05-28 13:47:00,82.1,73.0,29.52,South,178,21.0,31.0,74,0.00,,,0.00,Wunderground v.1.15,2013-05-28 18:47:00,
2013-05-28 13:53:00,82.1,73.4,29.52,SSE,167,22.0,29.0,75,0.00,,,0.00,Wunderground v.1.15,2013-05-28 18:53:00,
2013-05-28 13:58:00,81.9,72.8,29.52,SSE,167,23.0,29.0,74,0.00,,,0.00,Wunderground v.1.15,2013-05-28 18:58:00,
2013-05-28 14:04:00,82.4,73.3,29.52,South,186,23.0,29.0,74,0.00,,,0.00,Wunderground v.1.15,2013-05-28 19:04:00,
2013-05-28 14:09:00,82.4,72.9,29.53,South,186,22.0,29.0,73,0.00,,,0.00,Wunderground v.1.15,2013-05-28 19:09:00,
2013-05-28 14:15:00,82.5,72.6,29.52,South,175,24.0,33.0,72,0.00,,,0.00,Wunderground v.1.15,2013-05-28 19:15:00,
2013-05-28 14:20:00,82.7,72.7,29.52,South,180,26.0,26.0,72,0.00,,,0.00,Wunderground v.1.15,2013-05-28 19:20:00,
2013-05-28 14:26:00,82.0,72.5,29.52,South,175,26.0,35.0,73,0.00,,,0.00,Wunderground v.1.15,2013-05-28 19:26:00,
2013-05-28 14:31:00,81.9,72.0,29.52,South,170,26.0,31.0,72,0.00,,,0.00,Wunderground v.1.15,2013-05-28 19:31:00,
2013-05-28 14:37:00,81.6,72.1,29.52,South,178,27.0,39.0,73,0.00,,,0.00,Wunderground v.1.15,2013-05-28 19:37:00,
2013-05-28 14:42:00,81.9,72.0,29.52,South,176,25.0,25.0,72,0.00,,,0.00,Wunderground v.1.15,2013-05-28 19:42:00,
2013-05-28 14:48:00,81.7,71.8,29.52,South,191,22.0,25.0,72,0.00,,,0.00,Wunderground v.1.15,2013-05-28 19:48:00,
2013-05-28 14:54:00,81.3,71.8,29.52,SSE,153,23.0,32.0,73,0.00,,,0.00,Wunderground v.1.15,2013-05-28 19:54:00,
2013-05-28 14:59:00,81.5,71.6,29.52,South,173,24.0,32.0,72,0.00,,,0.00,Wunderground v.1.15,2013-05-28 19:59:00,
2013-05-28 15:04:00,81.6,70.9,29.52,SSE,167,25.0,31.0,70,0.00,,,0.00,Wunderground v.1.15,2013-05-28 20:04:00,
2013-05-28 15:09:00,82.1,72.2,29.52,South,184,25.0,31.0,72,0.00,,,0.00,Wunderground v.1.15,2013-05-28 20:09:00,
2013-05-28 15:15:00,81.9,71.2,29.52,SSE,166,23.0,30.0,70,0.00,,,0.00,Wunderground v.1.15,2013-05-28 20:15:00,
2013-05-28 15:21:00,82.5,72.1,29.52,South,176,23.0,24.0,71,0.00,,,0.00,Wunderground v.1.15,2013-05-28 20:21:00,
2013-05-28 15:27:00,82.5,70.9,29.52,South,170,24.0,36.0,68,0.00,,,0.00,Wunderground v.1.15,2013-05-28 20:27:00,
2013-05-28 15:33:00,82.3,71.5,29.52,South,175,25.0,34.0,70,0.00,,,0.00,Wunderground v.1.15,2013-05-28 20:33:00,
2013-05-28 15:38:00,82.5,71.3,29.52,South,172,25.0,37.0,69,0.00,,,0.00,Wunderground v.1.15,2013-05-28 20:38:00,
2013-05-28 15:44:00,82.3,70.7,29.52,South,171,25.0,27.0,68,0.00,,,0.00,Wunderground v.1.15,2013-05-28 20:44:00,
2013-05-28 15:49:00,81.9,71.2,29.52,SSE,162,26.0,30.0,70,0.00,,,0.00,Wunderground v.1.15,2013-05-28 20:49:00,
2013-05-28 15:55:00,82.7,71.5,29.52,South,190,24.0,29.0,69,0.00,,,0.00,Wunderground v.1.15,2013-05-28 20:55:00,
2013-05-28 16:00:00,82.5,70.9,29.52,SSW,193,24.0,24.0,68,0.00,,,0.00,Wunderground v.1.15,2013-05-28 21:00:00,
2013-05-28 16:06:00,82.5,70.9,29.51,SSW,192,24.0,31.0,68,0.00,,,0.00,Wunderground v.1.15,2013-05-28 21:06:00,
2013-05-28 16:12:00,82.2,71.0,29.52,South,173,22.0,33.0,69,0.00,,,0.00,Wunderground v.1.15,2013-05-28 21:12:00,
2013-05-28 16:18:00,82.0,70.0,29.52,South,171,22.0,33.0,67,0.00,,,0.00,Wunderground v.1.15,2013-05-28 21:18:00,
2013-05-28 16:23:00,82.3,70.7,29.51,South,188,23.0,32.0,68,0.00,,,0.00,Wunderground v.1.15,2013-05-28 21:23:00,
2013-05-28 16:29:00,81.6,70.4,29.52,South,171,23.0,32.0,69,0.00,,,0.00,Wunderground v.1.15,2013-05-28 21:29:00,
2013-05-28 16:34:00,82.1,70.5,29.51,South,184,20.0,24.0,68,0.00,,,0.00,Wunderground v.1.15,2013-05-28 21:34:00,
2013-05-28 16:40:00,82.1,70.5,29.51,South,178,20.0,27.0,68,0.00,,,0.00,Wunderground v.1.15,2013-05-28 21:40:00,
2013-05-28 16:45:00,82.1,70.1,29.51,South,177,22.0,30.0,67,0.00,,,0.00,Wunderground v.1.15,2013-05-28 21:45:00,
2013-05-28 16:51:00,81.4,69.8,29.51,South,185,24.0,30.0,68,0.00,,,0.00,Wunderground v.1.15,2013-05-28 21:51:00,
2013-05-28 16:56:00,81.4,69.4,29.51,South,186,26.0,35.0,67,0.00,,,0.00,Wunderground v.1.15,2013-05-28 21:56:00,
2013-05-28 17:02:00,81.1,69.5,29.51,South,180,26.0,32.0,68,0.00,,,0.00,Wunderground v.1.15,2013-05-28 22:02:00,
2013-05-28 17:08:00,80.9,69.8,29.51,South,169,26.0,36.0,69,0.00,,,0.00,Wunderground v.1.15,2013-05-28 22:08:00,
2013-05-28 17:13:00,81.0,69.9,29.51,South,175,25.0,29.0,69,0.00,,,0.00,Wunderground v.1.15,2013-05-28 22:13:00,
2013-05-28 17:19:00,80.6,69.5,29.51,South,178,24.0,30.0,69,0.00,,,0.00,Wunderground v.1.15,2013-05-28 22:19:00,
2013-05-28 17:24:00,80.2,69.1,29.51,South,171,23.0,29.0,69,0.00,,,0.00,Wunderground v.1.15,2013-05-28 22:24:00,
2013-05-28 17:30:00,80.2,69.1,29.51,South,174,24.0,34.0,69,0.00,,,0.00,Wunderground v.1.15,2013-05-28 22:30:00,
2013-05-28 17:35:00,79.7,69.0,29.51,SSW,194,24.0,34.0,70,0.00,,,0.00,Wunderground v.1.15,2013-05-28 22:35:00,
2013-05-28 17:41:00,78.8,68.6,29.51,SSE,168,23.0,28.0,71,0.00,,,0.00,Wunderground v.1.15,2013-05-28 22:41:00,
2013-05-28 17:46:00,79.2,69.0,29.51,SSE,164,25.0,39.0,71,0.00,,,0.00,Wunderground v.1.15,2013-05-28 22:46:00,
2013-05-28 17:52:00,79.9,69.2,29.51,South,170,25.0,30.0,70,0.00,,,0.00,Wunderground v.1.15,2013-05-28 22:52:00,
2013-05-28 17:57:00,79.6,68.5,29.51,South,175,25.0,35.0,69,0.00,,,0.00,Wunderground v.1.15,2013-05-28 22:57:00,
2013-05-28 18:02:00,79.2,68.6,29.51,South,187,26.0,33.0,70,0.00,,,0.00,Wunderground v.1.15,2013-05-28 23:02:00,
2013-05-28 18:08:00,78.5,68.3,29.51,South,182,25.0,33.0,71,0.00,,,0.00,Wunderground v.1.15,2013-05-28 23:08:00,
2013-05-28 18:13:00,78.3,68.5,29.50,South,171,24.0,35.0,72,0.00,,,0.00,Wunderground v.1.15,2013-05-28 23:13:00,
2013-05-28 18:18:00,78.0,67.8,29.50,South,180,23.0,35.0,71,0.00,,,0.00,Wunderground v.1.15,2013-05-28 23:18:00,
2013-05-28 18:24:00,77.8,68.0,29.49,South,188,23.0,28.0,72,0.00,,,0.00,Wunderground v.1.15,2013-05-28 23:24:00,
2013-05-28 18:29:00,77.8,67.6,29.49,South,176,23.0,34.0,71,0.00,,,0.00,Wunderground v.1.15,2013-05-28 23:29:00,
2013-05-28 18:35:00,77.6,67.9,29.49,South,169,25.0,29.0,72,0.00,,,0.00,Wunderground v.1.15,2013-05-28 23:35:00,
2013-05-28 18:41:00,77.4,67.7,29.49,South,188,26.0,31.0,72,0.00,,,0.00,Wunderground v.1.15,2013-05-28 23:41:00,
2013-05-28 18:47:00,77.3,67.6,29.48,SSE,166,26.0,33.0,72,0.00,,,0.00,Wunderground v.1.15,2013-05-28 23:47:00,
2013-05-28 18:52:00,77.2,67.1,29.48,South,173,26.0,34.0,71,0.00,,,0.00,Wunderground v.1.15,2013-05-28 23:52:00,
2013-05-28 18:58:00,76.9,66.8,29.48,South,173,24.0,34.0,71,0.00,,,0.00,Wunderground v.1.15,2013-05-28 23:58:00,
2013-05-28 19:03:00,76.8,67.1,29.47,South,175,23.0,28.0,72,0.00,,,0.00,Wunderground v.1.15,2013-05-29 00:03:00,
2013-05-28 19:09:00,76.8,67.1,29.48,South,177,24.0,36.0,72,0.00,,,0.00,Wunderground v.1.15,2013-05-29 00:09:00,
2013-05-28 19:15:00,76.6,66.9,29.48,South,186,21.0,32.0,72,0.00,,,0.00,Wunderground v.1.15,2013-05-29 00:15:00,
2013-05-28 19:20:00,76.6,66.9,29.48,South,189,21.0,21.0,72,0.00,,,0.00,Wunderground v.1.15,2013-05-29 00:20:00,
2013-05-28 19:26:00,76.4,67.1,29.48,South,186,21.0,30.0,73,0.00,,,0.00,Wunderground v.1.15,2013-05-29 00:26:00,
2013-05-28 19:31:00,76.1,67.6,29.49,SSE,163,17.0,20.0,75,0.00,,,0.00,Wunderground v.1.15,2013-05-29 00:31:00,
2013-05-28 19:36:00,76.0,67.5,29.50,South,169,18.0,28.0,75,0.00,,,0.00,Wunderground v.1.15,2013-05-29 00:36:00,
2013-05-28 19:42:00,75.9,67.4,29.51,South,175,20.0,26.0,75,0.00,,,0.00,Wunderground v.1.15,2013-05-29 00:42:00,
2013-05-28 19:48:00,75.8,67.7,29.52,South,181,19.0,27.0,76,0.00,,,0.00,Wunderground v.1.15,2013-05-29 00:48:00,
2013-05-28 19:53:00,75.7,67.6,29.53,South,173,18.0,22.0,76,0.00,,,0.00,Wunderground v.1.15,2013-05-29 00:53:00,
2013-05-28 19:59:00,75.8,67.7,29.54,South,176,18.0,27.0,76,0.00,,,0.00,Wunderground v.1.15,2013-05-29 00:59:00,
2013-05-28 20:05:00,75.7,67.6,29.55,South,187,15.0,21.0,76,0.00,,,0.00,Wunderground v.1.15,2013-05-29 01:05:00,
2013-05-28 20:10:00,75.6,67.5,29.56,South,174,13.0,13.0,76,0.00,,,0.00,Wunderground v.1.15,2013-05-29 01:10:00,
2013-05-28 20:16:00,75.5,67.4,29.56,South,180,13.0,18.0,76,0.00,,,0.00,Wunderground v.1.15,2013-05-29 01:16:00,
2013-05-28 20:22:00,75.5,67.4,29.56,South,178,12.0,22.0,76,0.00,,,0.00,Wunderground v.1.15,2013-05-29 01:22:00,
2013-05-28 20:27:00,75.5,67.4,29.56,SSE,164,13.0,22.0,76,0.00,,,0.00,Wunderground v.1.15,2013-05-29 01:27:00,
2013-05-28 20:33:00,75.3,67.2,29.57,South,191,14.0,18.0,76,0.00,,,0.00,Wunderground v.1.15,2013-05-29 01:33:00,
2013-05-28 20:38:00,75.3,67.2,29.57,South,181,14.0,19.0,76,0.00,,,0.00,Wunderground v.1.15,2013-05-29 01:38:00,
2013-05-28 20:44:00,75.2,67.5,29.57,SSE,157,13.0,19.0,77,0.00,,,0.00,Wunderground v.1.15,2013-05-29 01:44:00,
2013-05-28 20:50:00,74.8,67.5,29.57,SSE,159,11.0,11.0,78,0.00,,,0.00,Wunderground v.1.15,2013-05-29 01:50:00,
2013-05-28 20:55:00,74.6,67.7,29.58,SSE,163,11.0,14.0,79,0.00,,,0.00,Wunderground v.1.15,2013-05-29 01:55:00,
2013-05-28 21:01:00,74.4,67.5,29.58,South,176,10.0,13.0,79,0.00,,,0.00,Wunderground v.1.15,2013-05-29 02:01:00,
2013-05-28 21:06:00,74.2,67.6,29.59,South,169,8.0,13.0,80,0.00,,,0.00,Wunderground v.1.15,2013-05-29 02:06:00,
2013-05-28 21:12:00,74.2,67.6,29.59,South,178,6.0,9.0,80,0.00,,,0.00,Wunderground v.1.15,2013-05-29 02:12:00,
2013-05-28 21:17:00,74.0,67.8,29.59,South,175,7.0,11.0,81,0.00,,,0.00,Wunderground v.1.15,2013-05-29 02:17:00,
2013-05-28 21:23:00,73.9,68.1,29.60,South,182,7.0,10.0,82,0.00,,,0.00,Wunderground v.1.15,2013-05-29 02:23:00,
2013-05-28 21:28:00,73.9,68.1,29.60,South,175,9.0,13.0,82,0.00,,,0.00,Wunderground v.1.15,2013-05-29 02:28:00,
2013-05-28 21:33:00,73.8,68.0,29.60,SSW,202,9.0,9.0,82,0.00,,,0.00,Wunderground v.1.15,2013-05-29 02:33:00,
2013-05-28 21:39:00,73.7,67.9,29.61,SSW,192,8.0,13.0,82,0.00,,,0.00,Wunderground v.1.15,2013-05-29 02:39:00,
2013-05-28 21:45:00,73.7,68.2,29.61,SSW,200,9.0,10.0,83,0.00,,,0.00,Wunderground v.1.15,2013-05-29 02:45:00,
2013-05-28 21:50:00,73.6,68.1,29.61,South,175,9.0,13.0,83,0.00,,,0.00,Wunderground v.1.15,2013-05-29 02:50:00,
2013-05-28 21:56:00,73.6,67.8,29.60,SSE,163,10.0,15.0,82,0.00,,,0.00,Wunderground v.1.15,2013-05-29 02:56:00,
2013-05-28 22:01:00,73.6,67.8,29.60,South,181,11.0,18.0,82,0.00,,,0.00,Wunderground v.1.15,2013-05-29 03:01:00,
2013-05-28 22:06:00,73.6,67.8,29.61,South,191,12.0,18.0,82,0.00,,,0.00,Wunderground v.1.15,2013-05-29 03:06:00,
2013-05-28 22:12:00,73.5,67.7,29.61,South,186,11.0,14.0,82,0.00,,,0.00,Wunderground v.1.15,2013-05-29 03:12:00,
2013-05-28 22:17:00,73.5,67.7,29.61,SSW,194,12.0,16.0,82,0.00,,,0.00,Wunderground v.1.15,2013-05-29 03:17:00,
2013-05-28 22:23:00,73.5,67.7,29.61,South,185,11.0,13.0,82,0.00,,,0.00,Wunderground v.1.15,2013-05-29 03:23:00,
2013-05-28 22:29:00,73.4,67.9,29.61,South,185,10.0,13.0,83,0.00,,,0.00,Wunderground v.1.15,2013-05-29 03:29:00,
2013-05-28 22:34:00,73.3,67.8,29.61,South,188,11.0,16.0,83,0.00,,,0.00,Wunderground v.1.15,2013-05-29 03:34:00,
2013-05-28 22:40:00,73.2,67.7,29.61,South,170,12.0,15.0,83,0.00,,,0.00,Wunderground v.1.15,2013-05-29 03:40:00,
2013-05-28 22:45:00,73.2,67.7,29.61,South,178,12.0,15.0,83,0.00,,,0.00,Wunderground v.1.15,2013-05-29 03:45:00,
2013-05-28 22:51:00,73.2,67.7,29.61,South,169,11.0,13.0,83,0.00,,,0.00,Wunderground v.1.15,2013-05-29 03:51:00,
2013-05-28 22:57:00,73.2,67.7,29.61,South,183,11.0,13.0,83,0.00,,,0.00,Wunderground v.1.15,2013-05-29 03:57:00,
2013-05-28 23:01:00,73.2,67.7,29.61,South,184,11.0,12.0,83,0.00,,,0.00,Wunderground v.1.15,2013-05-29 04:01:00,
2013-05-28 23:02:00,73.2,67.7,29.61,SSE,162,10.0,12.0,83,0.00,,,0.00,Wunderground v.1.15,2013-05-29 04:02:00,
2013-05-28 23:03:00,73.2,67.7,29.61,SSE,168,10.0,12.0,83,0.00,,,0.00,Wunderground v.1.15,2013-05-29 04:03:00,
2013-05-28 23:05:00,73.1,67.6,29.62,South,170,10.0,12.0,83,0.00,,,0.00,Wunderground v.1.15,2013-05-29 04:05:00,
2013-05-28 23:08:00,73.1,67.6,29.61,South,174,10.0,12.0,83,0.00,,,0.00,Wunderground v.1.15,2013-05-29 04:08:00,
2013-05-28 23:14:00,73.0,67.9,29.61,SSE,166,9.0,10.0,84,0.00,,,0.00,Wunderground v.1.15,2013-05-29 04:14:00,
2013-05-28 23:19:00,72.8,67.7,29.61,South,170,8.0,11.0,84,0.00,,,0.00,Wunderground v.1.15,2013-05-29 04:19:00,
2013-05-28 23:25:00,72.7,67.2,29.61,SSE,161,9.0,12.0,83,0.00,,,0.00,Wunderground v.1.15,2013-05-29 04:25:00,
2013-05-28 23:30:00,72.6,67.5,29.60,SSE,161,9.0,10.0,84,0.00,,,0.00,Wunderground v.1.15,2013-05-29 04:30:00,
2013-05-28 23:36:00,72.4,67.3,29.60,SE,145,9.0,12.0,84,0.00,,,0.00,Wunderground v.1.15,2013-05-29 04:36:00,
2013-05-28 23:41:00,72.1,67.3,29.59,SE,144,9.0,9.0,85,0.00,,,0.00,Wunderground v.1.15,2013-05-29 04:41:00,
2013-05-28 23:47:00,71.8,67.0,29.59,SSE,159,9.0,12.0,85,0.00,,,0.00,Wunderground v.1.15,2013-05-29 04:47:00,
2013-05-28 23:52:00,71.5,66.8,29.59,SSE,160,9.0,12.0,85,0.00,,,0.00,Wunderground v.1.15,2013-05-29 04:52:00,
2013-05-28 23:58:00,71.3,66.9,29.59,SSE,151,9.0,12.0,86,0.00,,,0.00,Wunderground v.1.15,2013-05-29 04:58:00,